Tracking 20626 objects as of 8-Apr-2020
HD Live streaming from Space Station
objects crossing your sky now

TITAN 34B AGENA D DEB

Track TITAN 34B AGENA D DEB now!
10-day predictions


NORAD ID: 23811
Int'l Code: 1983-078C
Perigee: 648.6 km
Apogee: 13,567.7 km
Inclination: 63.6 °
Period: 259.6 minutes
Semi major axis: 13479 km
RCS: Unknown
Launch date: July 31, 1983
Source: United States (US)
Launch site: AIR FORCE WESTERN TEST RANGE (AFWTR)

Note: This is SATELLITE DEBRIS
aabbcc
Your satellite tracking list
Your tracking list is empty




NASA's NSSDC Master Catalog

Two Line Element Set (TLE):
1 23811U 83078C   20096.86600776 -.00000052  00000-0 -18742-3 0  9992
2 23811  63.6474 304.9992 4792256 255.0491  48.8638  5.54764742 11557
Source of the keplerian elements: AFSPC